Time,TemperatureF,DewpointF,PressureIn,WindDirection,WindDirectionDegrees,WindSpeedMPH,WindSpeedGustMPH,Humidity,HourlyPrecipIn,Conditions,Clouds,dailyrainin,SoftwareType,DateUTC
2013-03-16 00:10:00,50.5,41.5,29.74,SSE,157,0.0,-999.0,71,-99.99,,,0.00,Acu-Link.com,2013-03-16 04:10:00,
2013-03-16 00:26:00,50.5,41.8,29.74,SW,225,2.2,-999.0,72,-99.99,,,0.00,Acu-Link.com,2013-03-16 04:26:00,
2013-03-16 00:56:00,50.4,42.4,29.73,NW,315,0.0,-999.0,74,-99.99,,,0.00,Acu-Link.com,2013-03-16 04:56:00,
2013-03-16 01:11:00,50.2,43.3,29.72,SSW,202,1.7,-999.0,77,-99.99,,,0.00,Acu-Link.com,2013-03-16 05:11:00,
2013-03-16 01:26:00,49.5,44.6,29.72,South,180,1.7,-999.0,83,-99.99,,,0.00,Acu-Link.com,2013-03-16 05:26:00,
2013-03-16 01:41:00,48.9,45.2,29.72,NW,315,1.7,-999.0,87,-99.99,,,0.00,Acu-Link.com,2013-03-16 05:41:00,
2013-03-16 01:56:00,49.5,45.8,29.72,SW,225,1.1,-999.0,87,-99.99,,,0.00,Acu-Link.com,2013-03-16 05:56:00,
2013-03-16 02:11:00,50.0,45.7,29.71,West,270,2.7,-999.0,85,-99.99,,,0.00,Acu-Link.com,2013-03-16 06:11:00,
2013-03-16 02:26:00,49.8,45.8,29.71,SSE,157,2.7,-999.0,86,-99.99,,,0.00,Acu-Link.com,2013-03-16 06:26:00,
2013-03-16 02:42:00,50.4,46.4,29.70,NNW,337,2.7,-999.0,86,-99.99,,,0.00,Acu-Link.com,2013-03-16 06:42:00,
2013-03-16 03:27:00,50.4,47.9,29.69,SSE,157,1.1,-999.0,91,-99.99,,,0.00,Acu-Link.com,2013-03-16 07:27:00,
2013-03-16 03:42:00,50.4,48.2,29.68,ESE,112,0.0,-999.0,92,-99.99,,,0.00,Acu-Link.com,2013-03-16 07:42:00,
2013-03-16 03:57:00,50.0,48.9,29.68,East,90,0.0,-999.0,96,-99.99,,,0.00,Acu-Link.com,2013-03-16 07:57:00,
2013-03-16 04:12:00,50.0,49.5,29.68,North,0,1.1,-999.0,98,-99.99,,,0.00,Acu-Link.com,2013-03-16 08:12:00,
2013-03-16 04:27:00,50.0,49.5,29.68,East,90,0.0,-999.0,98,-99.99,,,0.00,Acu-Link.com,2013-03-16 08:27:00,
2013-03-16 04:42:00,50.0,49.5,29.67,South,180,3.7,-999.0,98,-99.99,,,0.00,Acu-Link.com,2013-03-16 08:42:00,
2013-03-16 04:58:00,49.8,49.3,29.66,NNW,337,1.1,-999.0,98,-99.99,,,0.00,Acu-Link.com,2013-03-16 08:58:00,
2013-03-16 05:13:00,49.8,49.3,29.66,SW,225,2.2,-999.0,98,-99.99,,,0.00,Acu-Link.com,2013-03-16 09:13:00,
2013-03-16 05:28:00,50.2,49.7,29.67,South,180,2.2,-999.0,98,-99.99,,,0.00,Acu-Link.com,2013-03-16 09:28:00,
2013-03-16 05:43:00,50.2,49.7,29.67,SSW,202,2.2,-999.0,98,-99.99,,,0.00,Acu-Link.com,2013-03-16 09:43:00,
2013-03-16 05:58:00,50.4,49.9,29.67,South,180,0.0,-999.0,98,-99.99,,,0.00,Acu-Link.com,2013-03-16 09:58:00,
2013-03-16 06:13:00,50.5,50.0,29.67,SSW,202,1.1,-999.0,98,-99.99,,,0.00,Acu-Link.com,2013-03-16 10:13:00,
2013-03-16 06:28:00,50.9,50.4,29.67,SSE,157,0.0,-999.0,98,-99.99,,,0.00,Acu-Link.com,2013-03-16 10:28:00,
2013-03-16 06:43:00,50.9,50.4,29.68,SSE,157,1.7,-999.0,98,-99.99,,,0.00,Acu-Link.com,2013-03-16 10:43:00,
2013-03-16 06:58:00,51.3,50.8,29.67,NNW,337,1.1,-999.0,98,-99.99,,,0.00,Acu-Link.com,2013-03-16 10:58:00,
2013-03-16 07:14:00,51.6,51.1,29.68,NNW,337,1.7,-999.0,98,-99.99,,,0.00,Acu-Link.com,2013-03-16 11:14:00,
2013-03-16 07:29:00,52.0,51.5,29.68,WSW,247,1.7,-999.0,98,-99.99,,,0.00,Acu-Link.com,2013-03-16 11:29:00,
2013-03-16 07:44:00,52.5,52.0,29.68,NE,45,1.1,-999.0,98,-99.99,,,0.00,Acu-Link.com,2013-03-16 11:44:00,
2013-03-16 07:59:00,53.2,52.6,29.68,East,90,1.1,-999.0,98,-99.99,,,0.00,Acu-Link.com,2013-03-16 11:59:00,
2013-03-16 08:14:00,53.4,52.8,29.68,East,90,3.2,-999.0,98,-99.99,,,0.00,Acu-Link.com,2013-03-16 12:14:00,
2013-03-16 08:29:00,53.6,53.0,29.67,NE,45,1.7,-999.0,98,-99.99,,,0.00,Acu-Link.com,2013-03-16 12:29:00,
2013-03-16 08:44:00,54.0,53.4,29.67,ENE,67,2.2,-999.0,98,-99.99,,,0.00,Acu-Link.com,2013-03-16 12:44:00,
2013-03-16 08:59:00,54.5,53.9,29.68,NNE,22,1.7,-999.0,98,-99.99,,,0.00,Acu-Link.com,2013-03-16 12:59:00,
2013-03-16 09:14:00,55.2,54.6,29.67,West,270,3.2,-999.0,98,-99.99,,,0.00,Acu-Link.com,2013-03-16 13:14:00,
2013-03-16 09:30:00,55.8,55.2,29.68,SSE,157,3.2,-999.0,98,-99.99,,,0.00,Acu-Link.com,2013-03-16 13:30:00,
2013-03-16 09:45:00,56.3,55.7,29.67,ESE,112,1.7,-999.0,98,-99.99,,,0.00,Acu-Link.com,2013-03-16 13:45:00,
2013-03-16 10:00:00,56.5,55.9,29.67,NE,45,2.7,-999.0,98,-99.99,,,0.00,Acu-Link.com,2013-03-16 14:00:00,
2013-03-16 10:15:00,56.7,56.1,29.66,South,180,2.2,-999.0,98,-99.99,,,0.00,Acu-Link.com,2013-03-16 14:15:00,
2013-03-16 10:30:00,57.7,57.1,29.66,NNE,22,2.7,-999.0,98,-99.99,,,0.00,Acu-Link.com,2013-03-16 14:30:00,
2013-03-16 10:45:00,57.9,57.3,29.66,SW,225,2.7,-999.0,98,-99.99,,,0.00,Acu-Link.com,2013-03-16 14:45:00,
2013-03-16 11:00:00,59.2,58.6,29.65,ENE,67,1.7,-999.0,98,-99.99,,,0.00,Acu-Link.com,2013-03-16 15:00:00,
2013-03-16 11:15:00,61.3,60.4,29.65,SE,135,2.7,-999.0,97,-99.99,,,0.00,Acu-Link.com,2013-03-16 15:15:00,
2013-03-16 11:30:00,62.8,58.9,29.64,NNE,22,3.2,-999.0,87,-99.99,,,0.00,Acu-Link.com,2013-03-16 15:30:00,
2013-03-16 11:46:00,65.7,59.4,29.63,South,180,2.2,-999.0,80,-99.99,,,0.00,Acu-Link.com,2013-03-16 15:46:00,
2013-03-16 12:01:00,66.2,57.7,29.63,NW,315,2.7,-999.0,74,-99.99,,,0.00,Acu-Link.com,2013-03-16 16:01:00,
2013-03-16 12:46:00,70.7,56.6,29.62,North,0,2.7,-999.0,61,-99.99,,,0.00,Acu-Link.com,2013-03-16 16:46:00,
2013-03-16 13:01:00,72.3,55.7,29.61,SW,225,5.3,-999.0,56,-99.99,,,0.00,Acu-Link.com,2013-03-16 17:01:00,
2013-03-16 13:16:00,70.9,55.4,29.60,SE,135,3.2,-999.0,58,-99.99,,,0.00,Acu-Link.com,2013-03-16 17:16:00,
2013-03-16 13:31:00,73.8,57.1,29.59,West,270,1.7,-999.0,56,-99.99,,,0.00,Acu-Link.com,2013-03-16 17:31:00,
2013-03-16 13:46:00,75.2,56.9,29.59,SE,135,4.2,-999.0,53,-99.99,,,0.00,Acu-Link.com,2013-03-16 17:46:00,
2013-03-16 14:01:00,76.1,56.1,29.58,North,0,5.3,-999.0,50,-99.99,,,0.00,Acu-Link.com,2013-03-16 18:01:00,
2013-03-16 14:17:00,76.3,56.3,29.57,South,180,3.7,-999.0,50,-99.99,,,0.00,Acu-Link.com,2013-03-16 18:17:00,
2013-03-16 14:32:00,77.5,55.7,29.56,South,180,3.2,-999.0,47,-99.99,,,0.00,Acu-Link.com,2013-03-16 18:32:00,
2013-03-16 15:02:00,79.0,56.4,29.54,ESE,112,3.7,-999.0,46,-99.99,,,0.00,Acu-Link.com,2013-03-16 19:02:00,
2013-03-16 15:17:00,78.6,55.5,29.54,ESE,112,4.2,-999.0,45,-99.99,,,0.00,Acu-Link.com,2013-03-16 19:17:00,
2013-03-16 15:47:00,78.8,55.6,29.52,South,180,4.2,-999.0,45,-99.99,,,0.00,Acu-Link.com,2013-03-16 19:47:00,
2013-03-16 16:02:00,78.1,55.0,29.52,NE,45,4.2,-999.0,45,-99.99,,,0.00,Acu-Link.com,2013-03-16 20:02:00,
2013-03-16 16:17:00,78.1,55.0,29.52,NNW,337,4.2,-999.0,45,-99.99,,,0.00,Acu-Link.com,2013-03-16 20:17:00,
2013-03-16 16:33:00,77.2,53.6,29.52,SW,225,4.2,-999.0,44,-99.99,,,0.00,Acu-Link.com,2013-03-16 20:33:00,
2013-03-16 16:48:00,77.0,54.0,29.51,NNE,22,4.2,-999.0,45,-99.99,,,0.00,Acu-Link.com,2013-03-16 20:48:00,
2013-03-16 17:03:00,77.2,54.8,29.51,NNE,22,1.7,-999.0,46,-99.99,,,0.00,Acu-Link.com,2013-03-16 21:03:00,
2013-03-16 17:18:00,77.4,54.4,29.50,NNE,22,4.2,-999.0,45,-99.99,,,0.00,Acu-Link.com,2013-03-16 21:18:00,
2013-03-16 17:33:00,77.2,54.8,29.50,SSW,202,4.2,-999.0,46,-99.99,,,0.00,Acu-Link.com,2013-03-16 21:33:00,
2013-03-16 17:48:00,76.5,54.2,29.49,SW,225,3.7,-999.0,46,-99.99,,,0.00,Acu-Link.com,2013-03-16 21:48:00,
2013-03-16 18:03:00,76.3,54.0,29.49,SSW,202,2.7,-999.0,46,-99.99,,,0.00,Acu-Link.com,2013-03-16 22:03:00,
2013-03-16 18:18:00,75.6,53.3,29.49,SSW,202,4.7,-999.0,46,-99.99,,,0.00,Acu-Link.com,2013-03-16 22:18:00,
2013-03-16 18:33:00,75.2,53.0,29.49,NE,45,3.2,-999.0,46,-99.99,,,0.00,Acu-Link.com,2013-03-16 22:33:00,
2013-03-16 18:49:00,74.5,52.9,29.50,ESE,112,1.1,-999.0,47,-99.99,,,0.00,Acu-Link.com,2013-03-16 22:49:00,
2013-03-16 19:04:00,73.8,52.9,29.51,NNE,22,1.1,-999.0,48,-99.99,,,0.00,Acu-Link.com,2013-03-16 23:04:00,
2013-03-16 19:19:00,73.4,53.1,29.51,NNW,337,2.2,-999.0,49,-99.99,,,0.00,Acu-Link.com,2013-03-16 23:19:00,
2013-03-16 19:34:00,73.0,53.2,29.52,NNW,337,3.2,-999.0,50,-99.99,,,0.00,Acu-Link.com,2013-03-16 23:34:00,
2013-03-16 19:49:00,72.7,53.5,29.52,WSW,247,2.2,-999.0,51,-99.99,,,0.00,Acu-Link.com,2013-03-16 23:49:00,
2013-03-16 20:04:00,72.5,53.3,29.53,West,270,4.2,-999.0,51,-99.99,,,0.00,Acu-Link.com,2013-03-17 00:04:00,
2013-03-16 20:19:00,71.8,53.2,29.55,WSW,247,3.7,-999.0,52,-99.99,,,0.00,Acu-Link.com,2013-03-17 00:19:00,
2013-03-16 20:34:00,71.2,52.7,29.57,NE,45,3.2,-999.0,52,-99.99,,,0.00,Acu-Link.com,2013-03-17 00:34:00,
2013-03-16 20:49:00,71.1,52.6,29.58,SSE,157,2.7,-999.0,52,-99.99,,,0.00,Acu-Link.com,2013-03-17 00:49:00,
2013-03-16 21:05:00,70.9,52.4,29.60,SSE,157,2.7,-999.0,52,-99.99,,,0.00,Acu-Link.com,2013-03-17 01:05:00,
2013-03-16 21:20:00,70.7,52.2,29.62,South,180,2.2,-999.0,52,-99.99,,,0.00,Acu-Link.com,2013-03-17 01:20:00,
2013-03-16 21:35:00,69.8,52.9,29.63,NNE,22,0.0,-999.0,55,-99.99,,,0.00,Acu-Link.com,2013-03-17 01:35:00,
2013-03-16 21:50:00,69.1,54.2,29.63,South,180,1.7,-999.0,59,-99.99,,,0.00,Acu-Link.com,2013-03-17 01:50:00,
2013-03-16 22:05:00,68.0,54.9,29.64,SSE,157,0.0,-999.0,63,-99.99,,,0.00,Acu-Link.com,2013-03-17 02:05:00,
2013-03-16 22:20:00,66.2,55.3,29.64,NW,315,0.0,-999.0,68,-99.99,,,0.00,Acu-Link.com,2013-03-17 02:20:00,
2013-03-16 22:35:00,64.6,55.4,29.64,West,270,0.0,-999.0,72,-99.99,,,0.00,Acu-Link.com,2013-03-17 02:35:00,
2013-03-16 22:50:00,64.6,57.2,29.65,SSW,202,0.0,-999.0,77,-99.99,,,0.00,Acu-Link.com,2013-03-17 02:50:00,
2013-03-16 23:05:00,65.3,60.3,29.65,NE,45,0.0,-999.0,84,-99.99,,,0.00,Acu-Link.com,2013-03-17 03:05:00,
2013-03-16 23:21:00,65.1,60.8,29.65,WNW,292,0.0,-999.0,86,-99.99,,,0.00,Acu-Link.com,2013-03-17 03:21:00,
2013-03-16 23:36:00,64.2,61.8,29.66,ESE,112,0.0,-999.0,92,-99.99,,,0.00,Acu-Link.com,2013-03-17 03:36:00,